Location: Nashville
(36.1660°N, 86.7840°W)
Time: 07:28:11
(UTC-05:00)

AO-109 - Pass Details

Date: 29 May 2022
Orbit: 477 x 502 km, 60.7° (Epoch: 27 June)

Event Time Altitude Azimuth Distance (km) Brightness Sun altitude
Rises 23:48:18 0° 316° (NW) 2,598 ? -30.6°
Reaches altitude 10° 23:50:34 10° 309° (NW) 1,712 ? -30.7°
Enters shadow 23:51:20 15° 304° (NW) 1,432 ? -30.7°
